Torna al catalogo

STARLINK-33952

AttivoComunicazioniVLEO
NORAD 64046·PAYLOAD·🇺🇸 United States

Lanciato May 16, 2025 da Vandenberg Space Force Base

Loading…

Prossimi Passaggi (prossime 24 ore)

TLE

AggiornatoSource: CelesTrak SupGP

Epoca: Sep 14, 2026, 21:43 UTC

1 64046C 25102AA  26257.90534722 -.00038009  00000+0 -13226-2 0  2578
2 64046  70.0009 355.9123 0003428 273.4413   7.3825 15.29588393    16

Traccia STARLINK-33952 in tempo reale con AllMySat

Download on the App Store